Location: Kampernieuwstad
(52.5135°N, 5.8742°E)
Time: 12:02:57
(UTC+00:00)

Cosmos 2322 - Pass Details

Date: 15 May 2026
Orbit: 839 x 853 km, 71.0° (Epoch: 5 June)

Event Time Altitude Azimuth Distance (km) Brightness Sun altitude
Rises 21:48:25 0° 329° (NNW) 3,429 8.8 -14.9°
Reaches altitude 10° 21:50:54 10° 332° (NNW) 2,488 7.6 -15.1°
Maximum altitude 21:56:36 68° 55° (NE) 913 3.9 -15.5°
Enters shadow 22:00:21 22° 135° (SE) 1,777 4.8 -15.7°
